Temp
11 11 11 11 11 11 11 11 11 11 12 12 12 11 11 11 11 10 9 10 10 10 10 10 9 10 9 9 9 9 9 9 9 9 9 9 9 9 8 8 8 7 8 7 7 7 6 6 6
11 11 11 10 11 11 11 11 11 12 12 11 11 11 12 11 11 11 9 9 10 10 10 10 10 9 9 9 9 9 9 9 9 9 9 9 9 9 9 8 8 7 7 7 7 7 6 6 6
11 11 10 10 10 10 10 11 11 11 11 11 11 11 11 11 11 9 9 9 10 10 9 9 9 9 9 8 8 8 9 9 9 9 9 9 9 9 8 8 8 8 7 7 7 6 6 6 6
10 10 10 9 10 10 10 10 10 11 11 11 10 10 10 10 10 10 10 10 10 10 9 9 9 9 9 9 9 8 8 8 9 9 9 9 8 8 8 8 8 7 7 7 7 6 6 6 6
10 10 9 9 9 10 10 10 10 10 10 10 10 10 10 10 10 10 9 9 9 8 9 9 8 9 9 9 9 9 8 9 8 8 8 8 8 8 8 8 8 8 7 7 7 6 6 6 6
9 9 9 9 9 9 9 9 9 9 10 10 10 9 10 10 9 9 9 8 8 8 8 8 8 8 8 9 8 9 9 9 10 9 9 8 8 8 8 8 8 8 7 7 6 6 6 6 6
9 9 8 9 8 8 9 9 9 9 9 9 9 9 9 9 9 8 8 8 7 8 8 8 8 8 8 8 8 8 8 8 9 9 9 9 9 8 8 8 8 8 7 7 7 6 6 6 6
9 8 8 8 8 8 8 8 8 8 8 8 8 8 9 8 8 8 8 7 7 8 8 8 8 8 8 8 8 8 7 7 8 8 8 8 9 9 9 8 8 8 8 7 6 6 6 6 6
9 8 7 8 8 8 8 8 8 8 8 8 8 8 8 8 8 7 7 7 7 7 7 8 8 8 8 7 7 7 6 7 7 7 8 8 8 8 9 9 8 8 8 7 7 6 6 6 6
8 8 7 7 7 7 8 8 8 8 8 8 8 8 8 8 8 7 7 7 7 7 7 7 7 8 7 7 7 7 6 6 6 6 6 7 7 8 8 8 8 8 7 8 7 7 6 6 6
8 8 7 7 7 7 7 7 7 7 7 7 8 8 8 7 7 6 6 6 7 7 7 7 6 6 7 7 7 7 7 7 6 6 6 6 6 6 7 8 7 8 8 7 7 7 7 6 6
7 7 7 7 7 7 7 7 7 7 7 7 7 7 7 7 6 6 6 7 6 6 6 6 6 6 6 6 6 6 6 7 7 7 7 7 6 6 6 6 7 7 8 8 7 7 7 7 6
6 6 6 7 7 7 6 6 7 7 7 7 6 6 6 6 6 6 6 6 6 6 6 6 5 5 5 6 6 6 6 6 6 7 7 7 7 7 6 6 6 7 7 7 7 7 7 7 7
6 6 6 6 7 6 6 6 6 6 6 6 6 6 6 6 6 6 6 6 6 6 5 5 5 5 5 5 6 6 6 6 6 6 6 6 7 7 7 7 6 6 6 7 7 7 7 7 7
5 6 6 6 6 6 6 5 6 6 6 6 6 6 6 6 5 5 5 5 5 5 5 5 5 5 5 5 5 5 6 6 6 6 6 6 7 7 7 8 7 6 6 5 6 7 6 6 7
5 5 6 6 6 6 6 6 6 6 6 6 6 5 5 5 5 5 5 5 5 5 5 4 4 4 4 5 5 5 5 6 6 7 7 6 6 7 8 8 7 7 7 6 5 6 6 5 5
4 5 5 5 5 5 5 6 5 5 6 6 6 5 5 5 5 5 5 5 4 4 5 5 4 4 5 5 5 5 5 6 6 6 6 6 6 6 6 6 7 7 7 7 6 5 5 5 5
4 4 5 5 5 5 5 5 5 5 5 6 6 5 5 5 5 4 4 4 4 4 4 4 4 5 5 5 5 5 5 6 6 6 6 7 7 6 6 6 5 5 6 6 6 6 5 5 5
2 3 3 4 5 4 5 5 5 5 5 5 5 5 4 4 4 4 4 4 3 3 4 4 4 4 4 4 4 5 5 5 5 5 5 5 5 5 5 6 6 5 5 5 5 5 5 4 4
3 3 3 4 4 4 5 5 5 4 5 4 4 4 4 4 5 4 4 3 3 4 4 4 4 4 3 4 4 5 5 5 5 5 4 3 3 4 4 4 4 4 4 4 4 4 4 4 3
3 3 4 3 3 3 4 4 5 4 4 4 4 4 5 5 5 4 4 3 3 3 3 3 3 3 3 3 4 4 4 5 5 4 4 4 4 3 4 2 2 2 3 3 2 3 3 3 4
3 3 3 3 2 3 4 2 5 5 5 4 5 5 5 4 4 4 3 2 2 3 2 2 2 2 3 3 4 4 4 5 5 4 4 3 3 3 4 2 1 2 2 2 2 2 2 3 3
2 3 2 2 2 2 2 3 3 4 4 5 5 4 4 3 3 2 2 2 2 1 1 1 2 2 2 3 4 4 4 4 4 3 3 3 3 3 3 1 1 1 2 2 2 2 2 2 3
2 2 2 2 2 0 2 2 3 3 4 4 4 3 2 2 1 1 1 1 1 0 0 1 1 2 3 3 3 3 3 3 3 3 3 3 3 3 1 0 1 2 1 1 1 2 1 2 2
1 1 1 0 -1 -1 2 2 3 2 3 4 3 3 3 2 1 0 -0 -0 -0 -0 0 1 2 2 2 2 2 2 2 2 2 2 3 2 3 3 1 0 1 1 1 1 0 -0 -0 0 1
2 1 1 -1 -2 -1 1 1 3 3 3 2 3 2 1 1 -0 -1 -1 -1 -0 -0 1 1 1 1 1 1 1 0 0 1 1 1 1 1 1 2 1 1 1 0 1 0 -1 -1 -1 -1 -0
1 1 1 2 -0 -1 1 2 3 3 3 3 2 1 -0 -1 -1 -1 -1 -1 -1 -0 0 -0 0 0 0 0 -0 -0 -1 0 0 1 0 -0 -0 1 1 -0 0 -0 -0 -1 -2 -3 -2 -2 -1
0 1 0 0 -0 -0 0 1 2 2 2 2 1 0 -1 -2 -2 -2 -1 -1 -1 -1 -1 -1 -1 -1 -1 -1 -1 -1 -1 -1 -1 -0 -1 -1 -1 -0 -1 -1 -1 -0 -1 -2 -2 -2 -3 -2 -2
1 -0 0 1 1 1 -0 1 2 1 1 1 -0 -1 -2 -2 -2 -2 -2 -2 -2 -2 -2 -2 -2 -1 -2 -2 -2 -2 -2 -1 -1 -1 -1 -1 -1 -1 -1 -1 -1 -1 -1 -2 -2 -3 -4 -3 -2
-0 -0 0 0 -1 0 1 1 0 1 0 0 -0 -1 -2 -2 -2 -2 -2 -2 -2 -2 -2 -3 -2 -2 -2 -2 -2 -2 -2 -2 -1 -1 -2 -2 -2 -1 -2 -2 -2 -2 -3 -2 -3 -3 -4 -3 -4
Height
3147 3145 3145 3146 3151 3148 3148 3151 3152 3152 3153 3155 3155 3158 3160 3159 3161 3166 3164 3164 3163 3162 3161 3161 3161 3161 3160 3161 3162 3163 3162 3162 3161 3160 3159 3157 3156 3155 3153 3152 3151 3150 3150 3149 3149 3149 3148 3147 3147
3146 3145 3145 3145 3148 3147 3149 3149 3150 3152 3153 3154 3155 3157 3158 3158 3160 3161 3163 3163 3162 3161 3162 3161 3161 3160 3160 3160 3160 3161 3160 3159 3159 3158 3158 3156 3155 3154 3152 3152 3151 3150 3149 3149 3149 3148 3148 3147 3146
3145 3145 3146 3146 3147 3147 3148 3149 3150 3151 3152 3152 3155 3157 3158 3158 3158 3158 3159 3160 3160 3161 3161 3160 3159 3159 3159 3159 3158 3158 3157 3157 3157 3156 3156 3155 3154 3153 3152 3151 3150 3149 3148 3148 3148 3148 3147 3147 3146
3143 3144 3146 3146 3146 3147 3148 3149 3149 3149 3150 3151 3153 3155 3156 3155 3155 3157 3159 3159 3159 3159 3159 3159 3158 3157 3157 3156 3157 3156 3156 3156 3155 3155 3154 3153 3152 3152 3151 3150 3149 3148 3147 3146 3147 3146 3146 3146 3145
3141 3141 3142 3144 3146 3146 3146 3147 3149 3149 3150 3151 3152 3153 3153 3154 3155 3157 3158 3159 3157 3157 3157 3157 3156 3156 3154 3153 3152 3150 3151 3152 3152 3152 3152 3151 3150 3149 3149 3148 3148 3147 3146 3145 3145 3145 3145 3144 3143
3140 3140 3141 3142 3144 3144 3145 3146 3148 3149 3149 3150 3151 3151 3152 3154 3155 3156 3157 3157 3156 3156 3155 3155 3154 3152 3152 3151 3150 3149 3149 3149 3148 3148 3148 3148 3148 3148 3147 3146 3145 3145 3144 3143 3143 3143 3143 3142 3141
3139 3139 3140 3142 3142 3143 3144 3145 3146 3147 3149 3150 3149 3149 3151 3152 3153 3153 3154 3154 3155 3154 3153 3152 3151 3149 3148 3148 3148 3148 3147 3147 3146 3147 3146 3144 3144 3144 3145 3144 3143 3142 3142 3142 3141 3141 3140 3140 3139
3137 3138 3139 3140 3141 3142 3144 3145 3145 3145 3148 3148 3147 3145 3148 3150 3152 3152 3152 3152 3152 3151 3150 3149 3147 3147 3145 3144 3145 3144 3144 3144 3144 3144 3143 3143 3142 3140 3140 3140 3141 3140 3139 3139 3138 3138 3138 3137 3137
3135 3137 3137 3139 3139 3142 3142 3144 3145 3145 3146 3145 3145 3145 3147 3148 3148 3150 3150 3150 3149 3148 3147 3146 3144 3142 3142 3141 3140 3140 3141 3140 3140 3140 3140 3139 3139 3139 3137 3135 3135 3137 3137 3135 3134 3135 3135 3135 3134
3133 3134 3136 3137 3138 3140 3142 3142 3143 3145 3143 3143 3144 3145 3144 3145 3146 3146 3147 3146 3145 3144 3143 3143 3142 3140 3138 3137 3138 3137 3137 3137 3137 3136 3135 3136 3135 3134 3134 3134 3132 3131 3132 3133 3131 3131 3130 3131 3131
3130 3131 3133 3135 3136 3137 3140 3140 3141 3142 3141 3141 3142 3142 3143 3143 3145 3145 3144 3145 3144 3143 3142 3140 3138 3137 3136 3134 3133 3133 3133 3132 3132 3131 3130 3130 3130 3130 3129 3129 3129 3128 3126 3127 3128 3127 3127 3127 3127
3128 3129 3131 3133 3133 3134 3135 3137 3138 3139 3140 3138 3139 3139 3141 3142 3142 3142 3142 3142 3141 3140 3139 3137 3136 3134 3133 3131 3130 3128 3127 3126 3126 3125 3124 3123 3123 3123 3123 3123 3124 3124 3124 3122 3122 3123 3122 3122 3123
3126 3126 3128 3129 3130 3131 3132 3133 3134 3133 3135 3136 3136 3136 3138 3139 3139 3139 3139 3139 3138 3137 3136 3134 3133 3131 3130 3128 3127 3125 3124 3122 3120 3119 3118 3117 3116 3116 3116 3117 3117 3118 3119 3119 3116 3116 3117 3117 3118
3124 3123 3124 3126 3127 3127 3128 3129 3130 3129 3130 3131 3131 3133 3134 3135 3136 3136 3135 3135 3134 3133 3132 3131 3129 3128 3127 3125 3123 3120 3118 3116 3115 3113 3111 3110 3110 3110 3109 3110 3110 3110 3111 3112 3112 3111 3110 3111 3112
3121 3121 3121 3122 3124 3125 3124 3123 3125 3126 3126 3126 3128 3128 3130 3131 3132 3132 3131 3131 3131 3129 3128 3128 3127 3126 3124 3121 3118 3116 3114 3112 3110 3107 3106 3104 3102 3101 3101 3101 3102 3103 3103 3103 3104 3104 3104 3104 3104
3118 3118 3116 3118 3120 3122 3121 3116 3121 3122 3123 3124 3123 3125 3127 3127 3127 3128 3127 3127 3126 3125 3124 3122 3121 3119 3117 3115 3113 3111 3109 3106 3103 3102 3100 3097 3095 3093 3092 3091 3090 3091 3093 3094 3094 3095 3096 3097 3097
3114 3114 3113 3115 3117 3117 3116 3113 3114 3116 3117 3118 3119 3122 3123 3123 3122 3122 3122 3121 3121 3121 3119 3117 3115 3114 3113 3111 3108 3106 3103 3099 3095 3093 3091 3089 3087 3083 3080 3080 3080 3079 3079 3081 3084 3086 3087 3088 3090
3110 3112 3111 3111 3113 3112 3111 3110 3109 3111 3111 3113 3115 3117 3118 3118 3117 3116 3116 3117 3117 3116 3114 3111 3110 3110 3108 3105 3103 3100 3097 3093 3089 3086 3083 3079 3076 3074 3071 3068 3067 3068 3067 3067 3070 3072 3076 3079 3082
3107 3109 3109 3109 3109 3106 3108 3107 3103 3105 3107 3108 3109 3112 3113 3114 3112 3110 3111 3111 3110 3110 3109 3107 3106 3105 3103 3100 3096 3094 3090 3085 3080 3077 3073 3069 3065 3062 3061 3058 3055 3054 3053 3053 3054 3057 3060 3065 3072
3101 3101 3104 3104 3107 3105 3104 3104 3101 3101 3102 3104 3106 3107 3108 3108 3107 3105 3105 3105 3104 3103 3103 3102 3101 3100 3096 3091 3087 3082 3077 3074 3070 3067 3064 3061 3057 3052 3048 3043 3042 3039 3039 3039 3041 3042 3046 3050 3057
3096 3096 3098 3101 3103 3102 3100 3096 3097 3097 3098 3099 3100 3100 3100 3100 3101 3099 3098 3098 3097 3098 3098 3096 3094 3092 3088 3084 3080 3077 3072 3068 3063 3060 3056 3052 3046 3042 3038 3034 3031 3029 3026 3025 3026 3028 3032 3036 3043
3093 3096 3097 3097 3099 3099 3100 3089 3091 3092 3092 3093 3094 3094 3093 3093 3094 3093 3092 3091 3091 3092 3091 3090 3089 3086 3082 3077 3074 3069 3062 3058 3053 3048 3044 3041 3037 3033 3028 3023 3021 3019 3016 3013 3014 3017 3019 3023 3028
3089 3094 3095 3095 3095 3095 3092 3094 3078 3086 3084 3086 3087 3088 3087 3087 3087 3087 3087 3086 3087 3088 3087 3085 3082 3078 3074 3071 3065 3060 3056 3050 3044 3039 3035 3032 3030 3023 3016 3011 3009 3006 3005 3002 3002 3005 3007 3010 3014
3086 3089 3091 3092 3093 3089 3083 3090 3063 3074 3076 3078 3081 3080 3081 3081 3082 3082 3082 3082 3081 3081 3080 3078 3076 3073 3069 3064 3059 3054 3047 3041 3035 3030 3026 3023 3019 3011 3006 3001 2998 2995 2991 2989 2990 2991 2993 2996 2999
3083 3085 3088 3090 3090 3079 3078 3080 3061 3066 3070 3073 3073 3075 3077 3077 3077 3078 3079 3078 3077 3076 3075 3074 3071 3067 3062 3056 3051 3046 3038 3033 3028 3023 3018 3012 3005 3000 2996 2991 2987 2984 2982 2977 2974 2974 2976 2979 2982
3076 3079 3076 3080 3081 3075 3074 3065 3058 3061 3062 3064 3067 3068 3069 3070 3072 3073 3074 3074 3073 3071 3068 3066 3063 3059 3053 3048 3044 3038 3032 3027 3022 3016 3010 3002 2996 2991 2984 2979 2975 2973 2969 2963 2960 2958 2957 2961 2964
3069 3069 3072 3073 3072 3073 3066 3060 3059 3054 3057 3061 3061 3062 3063 3065 3067 3068 3069 3069 3067 3064 3061 3058 3055 3049 3045 3041 3037 3032 3026 3021 3014 3009 3003 2995 2990 2983 2975 2968 2964 2962 2957 2953 2948 2946 2945 2943 2947
3061 3066 3067 3067 3069 3069 3059 3057 3052 3052 3054 3054 3056 3057 3059 3061 3063 3064 3064 3063 3061 3058 3054 3050 3046 3042 3038 3034 3029 3024 3019 3013 3007 3000 2993 2987 2983 2975 2968 2962 2957 2953 2948 2941 2937 2934 2932 2928 2929
3057 3055 3058 3058 3058 3056 3057 3052 3050 3051 3052 3052 3052 3053 3055 3056 3058 3059 3059 3057 3054 3051 3047 3043 3039 3035 3031 3026 3022 3017 3012 3006 3000 2993 2986 2979 2973 2966 2960 2953 2946 2941 2938 2931 2926 2923 2920 2918 2918
3050 3052 3051 3051 3054 3054 3054 3045 3047 3048 3050 3051 3051 3051 3052 3053 3054 3054 3053 3051 3048 3045 3041 3037 3032 3028 3024 3020 3016 3010 3004 2998 2992 2986 2979 2972 2965 2959 2951 2945 2938 2932 2927 2920 2915 2913 2912 2910 2910
Wind_Speed
6 8 7 6 1 5 5 6 12 10 6 6 9 9 8 6 6 5 5 2 4 6 7 6 7 10 10 11 11 11 11 13 15 15 15 16 16 16 16 15 15 14 14 12 8 7 6 6 8
7 8 6 2 4 8 8 8 14 11 7 5 5 7 4 0 2 3 3 1 5 7 7 9 9 10 12 11 10 9 9 11 13 14 14 15 16 16 16 16 15 14 13 11 9 8 8 9 9
9 10 7 0 6 8 8 8 8 9 10 8 4 4 2 1 2 0 2 6 9 10 8 10 9 7 10 12 11 10 10 11 12 12 12 13 13 15 16 16 16 15 14 12 11 10 10 10 11
11 12 8 2 8 7 6 11 11 13 12 10 5 4 1 2 7 7 8 11 15 15 13 12 12 11 11 11 13 12 11 12 13 13 13 12 11 12 14 15 15 14 14 13 13 11 11 12 13
11 12 9 4 7 7 9 17 14 13 13 11 9 6 5 5 10 12 13 13 15 15 16 15 15 14 15 19 19 18 16 14 13 13 14 13 12 11 12 13 15 14 14 13 13 13 12 13 14
10 11 6 10 10 10 15 16 14 13 13 12 10 7 8 7 11 12 14 16 14 16 19 20 22 21 17 18 22 23 22 22 21 18 14 12 13 13 13 12 12 14 14 14 14 14 14 13 15
12 10 9 13 12 11 13 13 15 14 12 9 9 9 10 11 11 13 14 15 17 20 20 21 20 20 20 18 20 23 25 24 23 21 20 18 15 13 14 15 13 13 13 14 15 15 15 15 16
11 10 10 11 13 12 13 14 12 11 9 9 10 10 13 13 14 15 17 18 18 20 22 26 24 19 19 18 16 19 23 24 24 23 22 21 19 17 15 14 16 15 13 13 15 16 16 17 18
12 10 8 9 13 13 14 15 15 13 12 14 14 15 14 15 16 16 15 19 21 22 24 27 24 22 19 17 18 18 20 22 25 26 25 23 22 22 21 18 15 16 17 15 15 17 18 18 18
12 12 8 9 8 10 13 13 12 12 12 13 12 16 19 18 17 16 16 19 23 25 27 24 22 21 22 22 19 20 21 21 23 26 27 27 26 26 25 24 21 17 16 18 16 17 18 18 18
14 14 11 14 12 10 11 13 11 11 14 16 16 17 20 19 16 16 17 19 23 24 23 22 20 20 21 23 25 24 23 23 24 26 30 30 28 29 29 29 27 24 20 18 19 19 19 19 20
15 17 15 18 18 14 13 15 14 16 19 21 20 19 18 18 17 18 20 18 17 18 19 20 20 19 19 21 24 26 26 25 25 26 29 31 33 33 32 31 31 31 29 23 21 22 21 21 20
19 20 17 19 19 15 16 15 16 21 21 22 23 23 19 19 19 17 16 17 17 16 17 19 18 16 16 20 22 23 25 27 28 29 29 30 34 35 36 36 35 35 34 32 27 24 24 24 22
17 20 21 18 19 19 20 17 17 19 18 20 22 22 22 19 17 18 16 18 18 18 20 21 18 16 21 25 26 28 27 25 25 27 30 32 32 34 38 38 39 39 38 37 35 31 27 27 26
17 22 23 20 19 21 19 21 25 20 20 21 22 23 20 17 17 18 20 21 21 22 23 24 20 17 24 29 31 33 33 30 28 28 28 30 33 35 36 39 41 42 43 41 40 38 35 31 30
18 18 23 23 23 24 26 32 23 19 22 21 23 23 19 17 19 22 24 24 25 25 26 27 25 25 31 35 36 39 41 35 30 29 29 30 33 36 38 40 40 41 44 47 46 44 40 37 36
19 21 20 16 13 15 25 31 27 29 26 22 25 22 19 20 24 26 27 27 27 27 29 30 29 30 33 37 40 43 44 38 34 34 34 34 34 36 40 39 40 43 44 45 48 48 46 41 40
13 18 21 21 16 13 20 24 24 20 27 22 22 22 21 23 27 31 32 31 30 30 32 32 31 33 36 38 41 45 44 37 35 35 35 37 38 39 40 41 42 42 46 48 48 51 50 48 45
20 19 21 20 14 20 20 19 26 23 24 26 25 26 24 24 28 32 33 32 32 33 34 36 36 38 40 43 45 46 45 40 36 36 37 38 39 39 39 42 47 48 46 48 51 51 53 52 48
19 20 25 25 20 22 22 20 21 25 27 29 27 27 28 28 30 34 34 35 35 35 36 38 41 42 45 46 49 52 51 44 41 40 39 38 39 41 45 43 40 42 47 47 50 52 53 53 51
25 24 24 20 15 19 18 26 26 27 30 32 32 33 34 33 33 37 38 38 38 37 39 40 41 44 46 49 51 52 49 43 40 38 38 39 40 42 45 41 41 40 42 41 42 50 52 55 54
26 25 20 18 14 16 19 11 21 29 33 35 36 37 38 38 38 37 38 38 39 39 40 41 42 44 47 49 51 54 50 45 41 40 41 40 39 43 50 43 42 40 41 41 39 40 50 53 53
31 24 17 20 20 23 25 18 24 32 41 42 43 43 42 39 36 35 36 38 39 39 39 39 41 44 46 48 49 49 43 42 41 40 41 40 41 44 46 40 41 39 41 42 43 38 42 51 56
20 17 15 15 17 11 25 17 30 27 35 36 39 41 38 36 34 34 35 37 37 37 36 38 39 41 41 43 45 42 40 40 41 41 42 40 41 44 38 35 38 39 39 41 44 48 46 47 55
15 14 4 5 5 8 4 16 38 12 11 16 21 28 32 33 33 33 34 34 34 33 33 34 35 36 40 42 41 39 38 39 40 41 42 41 42 44 42 35 36 36 40 48 50 51 52 50 55
30 25 13 6 5 4 11 14 18 19 20 18 26 25 28 31 31 31 30 32 32 27 28 31 35 38 40 40 38 36 36 38 39 40 41 40 43 46 49 39 33 35 41 49 47 48 51 49 53
35 32 35 23 6 2 9 18 24 30 27 23 21 24 29 29 29 30 29 26 24 26 29 32 37 39 40 38 37 35 35 37 38 39 40 39 42 46 46 41 36 38 39 42 40 44 47 51 51
30 28 17 24 8 13 10 15 22 20 19 21 19 21 24 26 26 25 23 23 24 28 32 37 39 39 37 36 36 36 36 36 38 39 40 40 40 44 45 42 38 37 40 38 38 44 42 47 50
30 32 24 21 28 10 8 12 15 13 10 14 17 20 23 24 24 23 23 24 27 32 35 37 37 38 36 36 36 36 36 36 37 39 39 41 40 43 44 45 43 37 35 36 35 39 33 35 44
21 31 36 24 14 22 26 35 26 24 25 22 17 19 22 25 25 24 24 26 30 33 34 36 38 37 37 37 36 36 37 37 36 37 38 40 40 40 44 44 44 37 36 35 32 38 32 28 29
Wind_Direction
264 262 270 288 173 88 119 165 159 166 161 145 150 158 169 157 145 128 129 70 349 321 319 305 292 273 256 244 262 283 305 319 322 326 331 335 338 337 335 331 328 326 324 318 305 289 270 256 258
253 256 263 289 134 125 101 128 168 181 199 162 142 149 136 336 77 111 118 211 283 294 314 327 315 301 272 238 251 273 293 306 312 319 326 332 335 335 335 331 327 324 321 314 303 289 280 270 265
253 257 267 296 155 132 139 145 171 195 195 199 217 173 218 205 19 158 291 297 302 311 324 336 324 303 278 252 245 257 277 290 300 305 315 322 328 331 331 331 328 325 322 313 304 298 286 279 274
250 254 265 198 151 169 172 167 189 190 202 222 235 222 198 301 281 284 295 299 307 306 312 320 326 303 271 261 260 267 277 286 294 298 302 307 317 325 326 328 325 324 321 313 303 298 292 288 283
244 244 245 160 179 203 185 176 189 201 210 220 228 234 252 259 280 296 305 306 309 312 311 313 316 311 290 268 257 250 253 261 272 282 291 298 304 310 314 320 322 320 315 307 301 296 290 287 283
236 237 224 160 156 165 171 181 192 209 216 221 229 243 241 257 274 293 310 311 309 313 315 313 311 311 300 287 271 263 262 263 263 262 266 282 298 305 305 307 311 313 311 305 296 294 292 287 282
242 236 232 178 173 168 170 190 202 210 212 225 241 243 273 270 276 289 296 300 304 313 318 322 316 307 301 296 287 275 267 263 264 267 269 266 268 282 295 299 298 299 303 303 299 296 295 290 282
250 238 239 204 197 199 189 182 186 198 207 228 247 251 268 272 272 282 291 299 305 312 315 319 322 317 309 303 293 279 271 270 270 270 272 273 271 265 267 279 289 290 290 294 296 296 296 294 288
249 240 233 227 215 205 208 209 212 220 229 238 252 267 274 271 274 269 282 299 309 311 316 319 319 317 310 301 293 283 277 274 275 276 276 276 275 276 270 262 265 280 285 283 287 293 293 293 292
244 246 230 214 195 201 215 221 225 227 243 252 258 271 273 267 272 275 291 300 307 309 313 316 314 307 305 305 299 293 287 280 275 277 279 280 280 277 276 271 261 258 269 279 279 283 288 293 290
250 246 229 209 194 189 213 234 251 261 272 281 279 270 263 259 264 278 289 292 298 303 305 308 311 312 308 305 304 299 293 288 281 276 275 275 273 275 277 274 271 262 254 260 272 274 280 284 287
246 249 240 229 227 230 227 240 264 272 272 273 270 261 250 255 265 273 284 294 304 307 307 309 307 308 315 313 308 303 300 294 287 281 277 276 274 271 271 271 272 269 265 251 253 265 270 275 280
248 247 247 242 242 247 242 247 257 269 274 263 259 256 251 253 266 277 288 297 319 320 315 314 317 318 329 336 330 316 306 301 299 295 289 281 276 274 270 267 268 269 267 264 252 251 260 267 271
247 253 251 248 247 252 256 260 259 264 272 262 252 251 254 261 272 287 293 305 322 327 326 321 314 310 327 328 330 334 325 313 304 299 296 294 288 280 276 272 268 266 265 263 262 253 249 255 262
252 256 250 245 246 255 261 256 263 265 264 262 256 252 254 263 277 287 298 310 318 321 325 325 314 311 327 333 334 335 330 318 310 306 302 297 294 290 284 278 273 267 264 263 260 258 253 250 254
264 264 262 253 250 255 264 266 265 258 259 258 257 250 254 265 276 289 298 305 309 314 317 320 321 318 326 332 333 334 330 322 314 309 305 303 301 295 288 284 278 271 265 263 261 257 254 250 250
262 257 260 268 256 264 261 267 271 261 256 251 249 248 255 267 280 287 289 293 298 304 309 317 324 321 320 326 330 331 327 321 317 315 314 309 304 299 294 285 277 276 270 261 257 258 254 250 248
271 263 266 263 260 242 252 260 267 263 247 244 244 245 255 270 281 283 283 286 290 297 304 310 313 314 314 321 326 327 325 320 317 315 312 310 308 306 301 293 284 275 271 269 259 252 251 248 248
264 269 272 271 248 260 257 263 258 252 241 233 238 243 253 269 280 282 281 279 281 293 302 306 306 305 310 316 320 322 323 322 320 318 315 314 311 310 304 293 284 274 267 266 265 255 247 243 243
255 256 262 265 262 271 263 264 267 245 243 236 239 246 256 265 275 284 283 282 285 293 298 300 301 304 309 317 320 321 324 324 320 318 317 310 309 312 308 302 294 285 274 266 258 257 251 244 236
251 249 255 263 282 275 277 266 254 244 235 234 241 251 256 265 276 281 281 281 282 285 290 294 298 302 309 314 317 319 321 319 315 314 314 312 308 310 306 292 287 286 284 280 265 255 248 248 239
253 254 256 255 261 260 266 275 260 253 251 247 251 257 261 262 266 268 272 272 277 284 288 292 295 301 308 312 313 318 320 319 318 315 314 314 309 304 306 286 279 282 284 284 275 262 251 244 244
254 262 264 260 260 263 255 268 272 256 252 254 257 259 257 258 259 262 265 272 277 281 284 290 300 306 308 310 315 317 318 318 319 316 312 314 306 308 307 282 274 281 285 281 277 273 259 246 241
253 243 249 245 243 257 247 235 278 255 260 256 254 253 253 255 257 259 263 269 276 282 291 301 305 304 310 313 317 317 319 321 320 317 313 312 309 316 307 278 275 287 295 287 277 273 267 255 245
258 215 203 233 195 241 230 222 250 245 246 249 251 256 257 256 257 259 262 268 276 283 293 297 301 311 314 318 317 320 324 322 319 317 312 314 316 315 317 287 282 287 293 299 287 276 270 259 248
244 221 202 199 196 245 221 233 249 261 261 261 241 240 241 246 249 254 261 268 279 287 295 305 316 320 321 320 321 323 323 320 318 317 314 318 319 317 320 294 282 300 297 294 280 273 270 264 250
235 227 237 248 276 301 236 257 271 270 268 271 260 239 236 240 245 252 264 269 284 297 304 313 321 325 323 321 323 323 322 320 318 316 316 318 318 318 322 313 288 301 303 294 273 270 272 268 254
238 243 217 220 228 246 255 264 259 278 284 281 261 248 241 241 246 254 264 281 296 306 313 320 325 326 323 323 322 322 321 320 319 318 317 318 316 318 318 317 295 302 307 290 272 272 273 268 252
239 229 225 232 226 233 259 263 280 278 295 282 262 250 241 242 249 262 277 291 304 311 317 322 324 324 322 322 321 321 320 319 319 317 317 316 317 318 316 319 311 300 301 294 269 276 266 269 246
256 247 231 223 228 239 242 256 261 272 291 298 271 250 252 254 259 270 284 297 306 314 320 322 322 321 319 320 320 319 319 317 318 316 315 316 317 317 315 316 319 299 299 294 271 266 259 249 245